Terminal Aerodrome Forecast
Issued by NWS Cheyenne, WY

Home | Current Version | Previous Version | Text Only | Print | Product List | Glossary On
Versions: 1 2 3 4 5 6 7 8 9 10 11 12 13 14 15 16 17 18 19 20 21 22 23 24 25 26 27 28 29 30 31 32 33 34 35 36 37 38 39 40 41 42 43 44
000
FTUS45 KCYS 121100
TAFCYS
TAF
KCYS 121121Z 1212/1312 03005KT P6SM OVC003
      TEMPO 1212/1215 SCT003
     FM121500 36010G20KT P6SM BKN009
     FM121700 07008KT P6SM SCT030 BKN040
     FM121900 05010KT P6SM VCTS BKN050CB OVC080
      TEMPO 1220/1224 VRB20G30KT 5SM TSRA BKN040CB
     FM130600 VRB03KT P6SM SCT005=

USA.gov is the U.S. government's official web portal to all federal, state and local government web resources and services.